GSAT0210 (GALILEO 13)

Last updated on Sat Sep 05 2026 00:02:48 GMT+0000 (Coordinated Universal Time)

1 41550U 16030B 26246.65573138 .00000053 00000+0 00000+0 0 9999 2 41550 55.0777 219.5352 0004244 252.4830 107.4488 1.70473557 64004
UTC large
Height (km)
Speed (km/s)
/
Latitude / Longitude
Inclination (degrees)
Orbital Period (minutes)
Azimuth
Elevation
Range (km)
Doppler Factor

Next 0 passes for location: London (51.5072 / 0.1276)

No passes found over London.
GSAT0210 (GALILEO 13)